Temp
3 3 3 3 3 3 3 3 3 3 3 3 3 3 3 3 3 3 3 3 4 4 7 5 6 6 7 8 7 7 8 6 7 7 9 10 9 9 8 8 8 8 8 8 9 8 8 6 7 6 5 5 4 3
3 3 3 3 3 3 3 3 3 3 2 3 3 3 3 3 3 3 4 3 2 3 5 2 2 2 3 4 5 6 5 5 7 7 7 7 8 8 8 8 8 7 8 9 9 10 9 4 4 3 3 2 2 1
2 3 2 3 3 2 2 2 2 2 2 2 2 3 3 3 3 3 3 2 2 2 4 4 4 3 2 1 1 4 6 3 3 2 4 6 6 8 7 9 9 9 8 7 8 9 4 3 5 6 4 3 1 2
3 3 3 3 3 3 3 3 3 3 3 2 2 2 2 3 3 3 2 2 2 2 2 5 2 3 1 0 1 1 0 1 1 2 3 4 5 7 6 7 6 8 7 7 7 7 4 4 5 6 5 3 3 4
3 3 3 3 3 3 3 3 3 3 3 3 2 2 2 2 2 2 2 2 1 2 3 4 3 2 1 1 0 -1 -1 -0 1 2 2 4 5 4 6 5 6 7 6 5 6 5 4 5 6 5 3 3 2 1
3 3 3 3 2 2 2 2 2 2 2 2 2 2 2 2 1 2 3 1 2 1 2 3 3 2 1 -0 -2 -2 -0 0 1 2 3 3 1 3 4 5 3 4 4 5 5 5 5 6 5 4 3 2 1 0
2 2 2 2 2 2 2 2 2 2 2 2 1 1 2 2 1 2 2 0 1 1 1 2 3 3 -0 -1 -0 -1 -2 0 1 2 3 3 2 2 3 5 4 2 3 4 4 3 4 5 4 3 1 0 -1 -1
2 2 2 1 1 2 2 2 1 1 1 1 2 2 1 1 1 1 0 0 1 0 -0 2 3 3 -1 3 3 -2 -1 0 0 1 1 2 2 2 2 4 2 1 1 1 2 1 1 1 1 2 -0 -2 -2 -3
1 2 1 2 2 2 2 2 1 2 2 2 2 1 1 1 0 -0 -1 -1 -1 -0 1 2 2 3 2 3 2 1 -1 1 -1 0 1 0 2 1 3 3 1 1 2 0 -1 -1 -1 -0 -0 -1 -3 -4 -5 -6
2 1 1 1 1 1 1 1 1 1 2 2 1 1 1 -1 -1 -1 -1 -0 -0 -2 -0 0 2 2 2 3 3 2 1 1 1 1 -1 -0 2 3 -1 -1 -2 -1 -2 -4 -2 0 1 -1 -2 -4 -6 -7 -8 -8
1 1 1 1 1 1 1 1 1 1 1 1 -1 -1 -1 -1 -1 -1 0 0 -1 0 -1 1 2 2 1 1 2 1 0 0 0 1 0 2 2 2 -3 -5 -4 -5 -4 -4 -3 -4 -5 -5 -6 -6 -7 -7 -7 -8
1 1 1 1 1 0 0 1 1 1 0 -0 -1 -1 -1 -1 -1 -0 -0 -2 -1 2 2 2 2 0 1 -1 0 0 0 -1 0 -2 -1 1 2 -3 -4 -5 -5 -4 -4 -4 -5 -6 -6 -7 -7 -8 -8 -8 -9 -10
1 1 1 0 0 1 1 1 1 1 1 -1 -1 -0 -1 -1 -1 -0 1 1 0 1 1 1 2 0 -1 -1 -1 -1 -0 0 -1 -1 1 2 -2 -2 -5 -5 -4 -4 -5 -6 -6 -7 -7 -7 -7 -8 -9 -9 -10 -10
0 -0 0 0 0 0 0 1 1 1 1 -0 -1 -1 -1 0 -1 1 2 3 1 1 1 1 1 1 0 -1 -0 -1 1 -2 -0 -1 1 0 -3 -4 -4 -5 -5 -5 -6 -7 -7 -7 -7 -8 -8 -9 -9 -9 -10 -10
0 0 0 0 1 1 0 0 0 0 1 0 -1 -1 -1 1 -1 -1 -3 -2 -1 -1 -0 0 -0 -0 -0 -1 -1 -1 -1 -1 0 1 1 -1 -3 -4 -5 -6 -6 -6 -7 -7 -8 -8 -9 -9 -9 -10 -10 -11 -11 -11
1 0 1 1 1 1 0 -0 0 0 -2 -2 -2 -2 -0 -2 0 -3 -3 -2 -0 -1 -1 -1 -0 -0 -1 -0 -1 -1 -0 -0 2 -0 -1 -3 -3 -5 -6 -7 -7 -8 -8 -9 -9 -10 -10 -10 -11 -11 -11 -11 -11 -12
0 1 1 0 0 0 -0 -1 -0 -1 -0 -0 -1 -0 -0 -0 -0 2 0 0 -1 -1 0 -0 -0 -0 -2 -1 -1 -0 -1 2 0 -2 -3 -4 -6 -7 -9 -9 -9 -10 -10 -11 -11 -12 -12 -11 -11 -11 -11 -12 -12 -13
0 0 1 0 0 -0 -0 -1 -1 -0 -0 0 -1 0 -0 0 1 1 -0 -2 -1 -0 -1 -0 1 -1 -1 -0 1 1 -1 -3 -4 -5 -5 -7 -9 -9 -10 -10 -11 -11 -12 -12 -12 -12 -12 -12 -12 -12 -12 -13 -13 -12
0 -0 -0 -0 0 -0 -1 -1 -2 -1 -0 0 -0 -1 -1 -0 0 1 1 -1 -2 -1 -1 -1 -1 -0 1 2 -0 -2 -5 -6 -6 -7 -8 -10 -11 -11 -12 -12 -12 -12 -12 -13 -13 -13 -13 -13 -13 -13 -14 -14 -14 -14
1 0 0 -0 -0 -1 -1 -1 -2 -0 0 0 -1 -1 -1 0 1 -0 -1 -2 -3 -3 -2 -1 -0 1 -4 -7 -8 -8 -9 -11 -10 -10 -9 -10 -12 -12 -12 -13 -13 -13 -13 -13 -13 -13 -14 -14 -14 -15 -15 -14 -14 -15
-0 0 -0 -0 -0 -1 -1 0 -1 -1 0 -3 -1 -2 -0 -3 -3 -2 -2 -3 -3 -2 -2 -3 -8 -10 -11 -11 -12 -12 -13 -13 -12 -13 -12 -12 -12 -13 -13 -13 -14 -14 -14 -14 -14 -15 -15 -15 -16 -16 -16 -16 -16 -16
0 -0 -0 -1 -1 -1 -1 -1 -1 -2 -2 -1 -3 -3 -2 -1 -0 -1 -4 -4 -3 -10 -11 -11 -12 -12 -11 -12 -13 -14 -15 -15 -15 -15 -14 -14 -14 -15 -15 -14 -15 -15 -15 -15 -16 -16 -16 -17 -17 -17 -17 -17 -18 -18
-0 -0 -1 -1 -1 -0 0 -2 -1 -2 -1 -1 -4 -2 -2 -3 -4 -6 -4 -11 -13 -14 -14 -14 -14 -14 -13 -14 -15 -15 -16 -16 -16 -16 -16 -16 -17 -16 -16 -16 -16 -16 -16 -16 -17 -17 -18 -17 -18 -18 -18 -19 -19 -19
-1 -1 -1 -0 -1 -0 -4 -3 -3 -3 -3 -3 -3 -1 -2 -7 -8 -6 -10 -13 -13 -14 -14 -15 -14 -14 -14 -14 -15 -16 -17 -17 -17 -18 -18 -18 -18 -17 -17 -18 -17 -17 -17 -17 -18 -18 -18 -19 -18 -19 -19 -20 -20 -19
-1 -4 -6 -7 -6 -6 -5 -5 -4 -4 -4 -4 -5 -4 -7 -8 -6 -10 -11 -13 -14 -14 -15 -16 -16 -15 -15 -15 -16 -17 -18 -19 -19 -19 -19 -19 -19 -19 -19 -18 -18 -17 -18 -18 -19 -19 -19 -19 -19 -19 -20 -20 -19 -19
-6 -8 -7 -8 -7 -7 -6 -6 -5 -5 -5 -5 -7 -8 -7 -7 -7 -11 -12 -13 -14 -15 -16 -17 -17 -16 -16 -17 -18 -18 -19 -20 -21 -20 -19 -19 -20 -20 -20 -20 -19 -18 -18 -19 -19 -19 -19 -20 -19 -19 -20 -20 -20 -21
-9 -10 -9 -9 -9 -9 -7 -6 -6 -8 -9 -10 -10 -9 -8 -8 -10 -13 -14 -16 -16 -18 -19 -19 -19 -19 -19 -19 -20 -20 -20 -20 -20 -20 -20 -19 -20 -20 -21 -21 -20 -19 -19 -19 -19 -19 -20 -19 -19 -19 -19 -20 -21 -21
-12 -15 -15 -14 -13 -9 -9 -10 -11 -11 -11 -12 -11 -11 -11 -11 -12 -15 -16 -19 -18 -18 -19 -19 -19 -19 -19 -19 -19 -19 -19 -19 -19 -19 -19 -19 -19 -19 -19 -19 -20 -20 -19 -19 -19 -19 -19 -19 -19 -19 -19 -20 -21 -21
-16 -17 -16 -19 -18 -14 -14 -13 -13 -13 -15 -14 -13 -12 -13 -15 -17 -17 -18 -18 -18 -18 -18 -18 -18 -18 -18 -18 -18 -18 -18 -19 -21 -22 -21 -20 -19 -20 -20 -20 -20 -19 -19 -19 -19 -19 -18 -18 -17 -17 -19 -20 -21 -21
-18 -20 -17 -20 -20 -15 -14 -18 -17 -18 -20 -20 -21 -19 -17 -17 -19 -18 -18 -18 -18 -18 -18 -17 -17 -18 -18 -19 -19 -18 -18 -19 -20 -21 -21 -21 -21 -20 -20 -20 -19 -19 -19 -19 -20 -19 -19 -19 -19 -19 -19 -20 -21 -22
-21 -20 -19 -18 -17 -16 -19 -23 -25 -26 -25 -24 -24 -22 -19 -20 -19 -18 -18 -17 -17 -17 -17 -17 -17 -17 -17 -18 -20 -19 -19 -19 -20 -20 -21 -21 -21 -20 -19 -19 -18 -18 -19 -20 -20 -21 -20 -20 -20 -20 -20 -21 -21 -21
-21 -23 -21 -20 -17 -20 -23 -23 -23 -23 -22 -22 -20 -23 -21 -19 -19 -17 -17 -17 -17 -17 -17 -16 -17 -17 -17 -17 -18 -18 -19 -20 -20 -20 -20 -19 -19 -18 -18 -18 -18 -18 -19 -19 -19 -19 -20 -20 -21 -21 -21 -21 -21 -21
-24 -26 -26 -24 -21 -19 -22 -24 -21 -22 -21 -21 -20 -22 -22 -21 -20 -18 -16 -16 -16 -16 -16 -16 -16 -16 -17 -18 -18 -19 -19 -19 -19 -19 -19 -18 -17 -17 -16 -17 -17 -17 -18 -18 -19 -19 -19 -20 -20 -21 -21 -21 -21 -21
Height
880 881 882 881 879 879 877 878 875 874 872 869 865 862 861 860 857 856 856 854 855 851 840 841 841 838 835 831 830 831 829 827 826 823 808 798 800 799 804 802 801 802 802 795 786 791 787 801 796 798 805 802 804 805
883 885 884 883 880 880 880 879 877 875 874 871 868 865 864 862 861 859 858 856 854 853 845 845 844 842 843 842 840 833 830 829 821 821 818 816 805 802 798 796 802 805 795 790 786 777 788 804 806 810 810 811 812 811
888 886 886 884 883 884 882 881 879 877 874 871 869 868 866 864 863 861 859 857 854 852 845 843 841 844 843 842 842 839 828 833 831 832 825 817 813 804 800 788 788 790 795 797 795 785 804 808 805 805 806 806 807 806
890 888 887 887 885 884 883 882 880 878 875 874 871 870 867 865 862 860 859 858 856 855 852 841 842 842 842 841 840 840 839 838 837 835 830 822 816 804 801 797 799 791 798 792 788 791 804 806 803 803 805 807 805 803
892 890 890 889 888 886 885 883 880 878 876 874 872 869 866 864 862 860 859 859 858 859 852 843 843 842 840 840 839 838 837 836 834 831 828 820 812 814 802 804 798 794 797 801 793 802 805 804 801 804 807 805 805 805
893 892 890 890 888 887 885 883 881 879 875 873 870 868 864 862 860 860 859 860 858 859 856 846 842 840 840 839 837 838 838 838 836 832 823 817 819 818 806 797 803 802 804 802 801 803 803 803 804 806 807 806 805 804
895 893 892 890 888 886 885 882 880 878 875 872 868 864 861 859 858 858 859 861 859 858 858 850 841 838 838 837 837 837 836 835 835 828 822 818 818 820 809 796 798 805 807 804 805 806 804 803 804 805 806 804 804 802
896 894 892 890 888 885 883 881 878 876 872 868 865 862 860 859 859 859 858 858 857 858 859 851 841 839 840 833 831 838 836 833 831 826 825 823 819 818 813 798 804 807 808 809 808 809 808 806 803 802 803 802 799 798
896 893 891 889 888 886 883 881 877 874 870 866 863 860 861 861 861 861 858 857 858 860 852 851 844 839 840 835 836 835 836 829 831 827 824 826 813 812 798 799 805 805 805 808 809 807 805 804 801 800 800 800 800 797
896 895 892 890 889 886 884 880 876 872 868 864 862 862 860 861 859 861 858 857 856 860 859 855 848 844 845 837 834 836 832 827 824 822 827 822 807 798 803 805 805 805 806 809 809 805 803 803 802 800 800 800 799 796
896 893 891 889 886 885 883 880 875 870 868 867 865 864 863 860 859 857 855 855 856 854 855 849 846 845 847 844 838 840 835 832 827 820 821 807 804 798 807 808 808 808 808 809 809 808 808 806 803 800 797 796 795 794
893 891 889 887 886 884 881 879 874 872 872 870 868 864 863 861 860 858 856 862 857 841 844 842 842 849 847 848 844 841 836 837 825 830 824 807 800 812 811 811 811 810 810 809 808 806 804 802 801 799 797 795 793 791
891 888 887 885 883 880 878 877 877 873 869 866 866 865 865 862 861 855 847 845 848 842 842 842 840 844 847 849 845 844 835 825 830 825 808 796 811 812 814 811 809 811 812 810 808 805 804 802 800 799 796 794 792 789
889 885 882 882 880 879 880 877 874 873 869 868 868 864 861 854 854 841 838 836 840 840 840 841 839 842 841 844 839 839 825 834 820 817 801 802 814 815 814 816 814 813 813 811 808 806 804 802 801 799 796 793 790 787
885 883 881 879 877 876 876 875 873 872 872 868 869 861 853 844 846 844 847 845 840 841 840 840 840 840 838 838 836 832 829 821 808 796 797 807 812 815 818 817 817 815 813 811 809 807 805 803 801 799 796 792 789 786
882 880 876 876 875 874 873 872 871 870 868 867 863 855 845 848 838 844 844 839 835 837 840 840 835 834 831 829 828 822 815 807 792 798 804 809 811 814 816 817 816 815 813 811 809 807 805 803 802 799 795 791 789 786
879 877 875 874 872 871 869 868 867 866 859 853 847 841 841 838 833 827 828 827 830 833 831 830 827 825 829 823 819 809 804 788 795 801 806 808 811 814 815 815 815 814 812 811 809 806 803 801 799 796 792 790 787 784
872 870 869 868 867 863 861 862 862 856 845 839 838 830 832 827 823 821 822 824 826 825 825 822 815 816 810 803 793 789 795 802 805 807 809 811 813 814 815 815 814 814 812 809 809 807 802 798 795 793 791 787 784 780
864 862 862 861 861 858 854 850 849 840 830 829 827 826 823 818 814 811 811 814 816 816 817 812 806 797 790 783 788 795 803 806 808 811 812 814 816 816 816 814 812 810 811 809 807 806 805 800 796 793 790 786 781 778
856 855 854 853 854 850 845 839 836 827 817 816 817 816 815 808 804 804 806 808 812 813 809 802 792 784 795 804 807 810 812 815 814 812 811 814 816 816 815 814 812 810 808 806 805 803 802 799 795 793 790 786 781 776
847 845 844 845 841 841 834 825 823 819 813 814 808 809 803 803 801 798 798 803 805 800 793 793 804 810 811 811 812 813 815 816 816 817 816 815 815 815 814 815 813 811 809 807 805 803 802 799 796 792 788 785 781 777
837 837 834 832 829 823 816 811 810 809 811 802 806 804 796 791 785 787 795 797 793 810 814 815 815 816 816 819 820 821 822 821 820 818 817 816 815 814 813 812 811 809 809 808 806 805 802 799 795 791 788 784 779 774
831 829 825 823 819 810 799 802 802 799 796 790 794 791 786 786 786 792 791 811 821 825 824 823 822 820 821 822 822 822 824 824 823 821 818 817 816 814 812 812 810 809 808 807 806 804 801 797 794 790 786 782 777 772
822 818 812 807 801 794 802 798 796 794 790 789 786 778 780 794 799 792 810 825 829 827 826 827 826 824 824 824 825 825 826 826 824 821 819 818 815 813 813 812 810 809 808 806 805 803 800 796 792 788 785 780 775 771
816 819 823 823 818 817 810 809 805 803 802 801 799 794 799 801 793 811 819 829 831 832 831 829 828 828 828 828 828 827 827 827 825 822 818 817 814 813 812 810 808 807 805 804 803 800 797 794 790 786 782 778 773 768
827 837 836 835 831 827 824 817 812 811 810 806 808 810 805 801 800 819 825 830 832 834 834 833 833 831 831 832 831 828 827 826 823 821 817 815 814 813 810 808 806 803 803 802 799 796 793 790 786 782 778 774 770 766
844 848 846 846 844 839 830 822 822 825 827 829 829 821 813 805 815 829 834 836 836 837 837 835 835 834 834 832 830 828 825 823 821 818 813 810 808 807 806 805 802 801 799 797 795 792 789 785 782 778 774 771 768 764
860 865 866 858 852 842 839 840 840 841 841 844 839 830 826 823 827 836 837 838 838 837 836 835 835 834 832 830 827 825 822 819 816 813 810 807 805 804 803 801 799 798 795 792 789 786 783 781 777 773 770 767 763 760
869 870 868 871 865 855 854 852 850 850 855 851 846 836 833 838 839 838 838 838 837 837 836 835 834 832 830 828 826 824 821 818 815 813 809 805 802 801 799 796 793 790 787 784 782 780 777 773 770 768 765 763 761 758
877 878 872 875 874 859 856 860 857 856 857 856 854 848 842 839 838 837 837 837 837 836 835 833 831 830 828 825 821 818 816 814 813 811 808 804 800 796 793 789 786 783 780 777 774 771 769 767 765 763 762 759 756 753
882 879 876 873 867 857 859 860 858 857 857 855 854 852 844 842 837 835 835 835 834 834 832 830 828 827 825 822 819 815 810 809 806 803 800 797 793 789 785 781 778 775 772 770 768 766 764 762 760 758 756 754 751 749
883 886 884 878 863 860 861 861 858 857 854 852 847 850 845 842 839 833 830 831 831 831 829 827 825 822 820 818 815 812 808 803 799 796 793 789 785 781 777 772 769 767 765 764 762 759 757 756 754 752 750 748 746 744
887 889 889 885 873 864 867 868 858 858 854 850 847 848 846 844 840 830 828 827 828 827 825 824 821 818 815 813 809 805 802 798 793 790 787 783 779 774 770 767 763 761 759 758 756 754 752 751 749 747 745 743 740 738
Wind_Speed
18 16 14 13 14 14 14 13 14 15 15 17 18 18 19 19 21 13 5 15 5 2 6 5 5 4 5 4 5 4 4 2 2 4 3 4 3 2 3 1 2 3 4 5 5 6 10 7 4 4 6 10 12 9
16 14 13 13 14 14 13 12 13 14 15 15 16 17 17 17 16 15 6 12 11 6 3 4 4 3 4 5 4 3 2 2 2 3 3 3 5 4 5 10 4 5 6 5 3 7 8 5 4 4 6 6 5 6
13 13 12 13 13 12 12 12 13 14 15 15 15 15 14 14 13 13 9 10 5 4 4 2 2 1 3 2 4 4 3 3 2 2 2 3 7 3 7 8 6 4 3 5 9 1 8 7 7 6 1 1 3 5
12 12 12 11 11 11 11 12 13 14 14 14 14 14 14 13 12 12 6 8 4 3 3 1 1 5 4 5 2 6 6 5 2 2 2 3 4 2 6 5 4 6 2 8 13 5 6 5 6 5 6 3 6 9
12 12 11 11 11 11 11 12 13 14 14 14 15 15 14 13 12 9 2 6 9 4 3 5 9 1 4 5 4 3 1 2 1 2 4 3 3 3 5 4 8 5 3 2 3 4 4 2 5 7 8 8 9 8
11 11 10 10 10 12 13 14 15 15 15 16 16 16 16 14 10 3 2 1 7 7 3 3 2 3 2 4 3 2 2 2 2 2 2 3 2 2 4 3 1 1 2 2 2 2 2 6 6 2 7 8 9 9
10 10 9 9 10 12 13 14 15 17 18 18 19 18 18 10 0 1 1 1 7 5 1 4 4 1 2 2 1 1 2 2 2 2 3 3 1 2 3 5 4 2 3 3 3 2 2 3 5 9 7 10 10 9
10 10 10 11 11 13 14 15 16 18 19 21 21 17 5 6 5 2 0 7 9 1 2 2 3 3 4 2 2 1 2 2 3 2 1 2 2 2 4 3 2 2 1 2 1 2 5 8 11 7 7 9 8 4
12 12 12 13 15 15 16 17 18 19 20 22 18 5 1 1 2 3 12 5 0 1 1 2 2 3 5 1 2 2 1 2 2 2 2 1 3 5 4 3 3 5 3 1 5 5 5 5 9 6 4 6 7 6
10 11 12 14 14 14 15 17 19 19 21 17 6 2 1 2 9 4 1 0 1 2 1 2 1 2 3 4 3 3 0 3 3 1 1 3 4 7 2 4 3 3 4 3 3 5 8 11 8 7 3 5 6 7
10 11 13 14 14 14 15 16 17 19 10 6 6 2 7 11 2 1 1 2 1 3 4 3 2 3 2 3 4 0 3 2 3 2 2 2 3 1 4 3 4 4 5 5 7 7 8 8 9 9 7 7 8 11
11 12 13 15 15 15 16 15 14 11 10 8 9 9 5 3 1 2 1 1 3 2 3 2 1 3 2 1 3 1 3 1 5 1 2 3 1 5 6 5 6 8 8 8 10 11 12 10 10 9 9 10 12 17
12 12 13 13 14 14 12 9 9 13 16 2 1 2 2 0 3 3 3 3 2 3 3 3 2 2 2 2 3 2 4 4 1 3 3 1 2 4 4 5 8 12 12 12 12 13 12 10 9 9 12 13 13 14
15 14 14 14 16 9 5 7 10 12 5 2 2 4 3 4 5 4 2 1 1 2 2 2 2 3 2 3 2 4 2 2 3 3 4 3 3 5 7 6 7 10 11 11 11 13 13 13 13 13 13 14 15 16
15 16 17 16 5 5 7 10 12 7 3 2 1 5 7 4 3 2 2 3 4 2 2 2 3 2 3 4 3 3 3 5 5 3 2 3 3 4 5 6 7 8 10 12 15 15 15 16 15 15 15 15 14 15
15 18 10 7 7 6 8 14 11 4 2 3 6 5 4 2 4 3 4 5 4 3 2 2 3 3 6 3 4 7 3 6 2 2 2 1 2 3 5 7 10 10 11 12 13 14 15 15 16 17 17 15 15 18
15 11 13 13 15 15 14 5 3 4 5 5 6 6 7 6 6 6 4 3 9 5 3 3 5 8 1 4 4 4 5 6 2 3 2 1 1 2 4 7 8 9 9 10 11 10 11 12 14 15 15 17 18 19
23 23 22 21 20 19 14 10 6 5 7 7 6 6 6 6 6 6 4 6 5 4 3 5 3 7 5 5 6 5 3 1 0 2 2 1 1 2 5 7 7 8 9 9 12 14 11 11 11 12 15 16 18 17
25 25 23 21 18 9 5 7 8 5 9 4 4 4 4 5 9 17 11 9 12 3 3 3 6 5 8 5 5 3 2 2 2 3 3 5 5 5 8 7 8 7 10 11 12 12 14 14 13 14 16 17 17 18
25 24 25 22 18 6 4 4 6 5 4 4 3 5 4 5 5 5 5 5 5 3 5 5 6 7 2 2 3 2 3 3 2 3 1 3 5 8 7 7 8 10 10 10 10 11 14 15 13 16 18 21 19 19
24 25 22 20 13 14 7 4 5 4 3 4 2 4 4 2 4 5 5 6 5 4 5 1 3 4 6 7 6 5 6 5 3 2 3 5 9 8 10 10 11 11 10 11 12 12 14 14 16 18 18 18 19 22
19 17 17 17 12 8 6 13 4 2 4 3 3 4 5 5 7 5 4 5 1 4 4 4 4 4 4 7 9 10 8 7 5 5 6 8 5 8 9 10 11 9 10 11 11 13 15 15 17 18 18 19 21 21
22 15 10 10 8 7 5 8 6 6 6 4 3 4 4 4 1 2 2 4 3 8 8 7 6 6 7 6 7 8 8 9 8 9 9 8 9 10 8 10 10 9 10 10 10 13 14 17 17 19 18 20 21 21
23 7 4 5 5 2 1 2 2 3 3 3 3 5 1 4 3 1 4 3 2 5 8 9 9 5 4 5 6 7 9 8 9 9 7 9 9 9 10 12 10 8 9 10 10 12 14 15 18 17 18 19 19 21
5 3 5 7 4 5 6 6 4 3 4 3 3 3 3 2 1 3 2 2 2 3 5 8 7 6 3 3 6 7 7 8 9 11 11 7 8 11 12 10 10 9 10 9 11 14 15 16 16 17 18 17 21 21
5 6 6 8 5 5 5 5 4 4 3 3 4 5 3 3 3 3 2 1 2 3 4 5 5 4 4 6 6 8 10 10 10 9 10 7 10 11 11 10 10 11 7 10 15 15 17 17 19 19 19 20 22 22
5 5 4 4 4 4 4 4 3 4 5 5 5 6 4 4 3 2 2 3 2 2 3 3 3 3 4 6 7 8 11 12 11 14 22 21 18 14 12 13 13 15 16 18 15 18 19 18 19 21 17 18 19 19
4 5 5 8 4 3 4 4 4 5 4 4 6 3 6 4 3 2 3 1 1 2 2 3 2 4 7 8 11 14 17 19 21 20 17 13 11 11 13 13 11 18 22 21 20 20 20 18 22 19 13 17 23 23
3 5 4 4 4 2 2 3 3 2 2 2 2 3 2 2 1 1 1 2 3 3 3 4 5 9 11 13 15 17 18 18 16 7 10 9 13 13 13 20 23 22 22 23 20 18 20 21 22 14 15 19 22 21
3 5 3 2 1 2 0 1 2 3 2 2 3 4 3 2 2 3 4 5 6 4 1 3 7 11 13 16 21 25 23 18 17 15 8 10 16 25 29 27 27 27 27 27 27 27 22 22 20 19 21 22 22 20
3 2 2 2 3 2 1 7 5 2 2 1 2 2 3 3 5 6 9 10 9 6 6 9 9 13 16 20 16 18 21 24 22 26 25 25 28 29 30 30 30 31 31 28 25 24 23 20 21 19 20 22 24 20
3 2 3 3 4 2 5 5 3 2 2 1 1 1 2 2 2 2 7 15 12 10 12 13 16 19 21 25 26 28 26 28 29 28 26 26 28 30 30 32 30 26 22 22 22 22 20 20 21 21 21 22 24 24
1 1 1 3 3 4 4 6 3 4 2 2 2 1 1 1 4 3 4 14 17 16 17 18 24 24 24 29 30 29 27 25 25 24 24 23 22 24 24 25 25 23 16 14 15 17 20 21 20 22 22 23 24 23
Wind_Direction
91 89 87 78 69 61 52 43 38 34 29 26 26 27 20 19 21 27 25 18 9 271 300 3 9 342 322 277 276 12 299 154 233 240 258 278 279 306 289 215 229 223 208 224 230 268 269 4 298 332 342 325 330 2
88 86 81 70 64 51 45 39 35 30 23 22 21 19 16 12 10 15 357 347 335 249 321 314 349 4 258 287 290 236 281 293 267 251 240 295 246 225 269 271 178 243 231 286 275 310 28 70 57 43 42 54 47 25
88 79 75 64 59 51 43 34 28 21 18 16 13 9 4 2 2 7 351 355 339 317 284 248 185 256 339 8 250 250 249 9 326 357 321 276 262 280 265 265 266 250 226 272 292 287 45 70 66 50 51 246 249 261
75 67 59 51 43 33 23 17 12 12 9 5 2 356 354 351 353 354 11 3 356 310 314 352 285 319 288 351 322 262 309 320 345 330 302 267 265 275 272 297 286 290 245 271 277 308 86 76 45 346 359 336 302 322
61 53 42 31 24 15 6 357 354 353 353 350 347 345 341 338 338 345 54 85 39 11 313 297 312 251 316 337 322 298 326 247 237 225 223 243 268 299 263 291 262 283 308 298 355 47 94 11 333 30 349 338 345 338
44 35 26 18 12 8 2 358 353 349 347 343 340 332 324 321 316 293 230 275 2 357 290 301 4 262 304 340 20 12 307 261 257 285 275 286 54 288 282 236 105 299 327 253 86 50 280 332 330 357 328 330 332 322
26 19 12 7 4 358 352 349 345 340 337 333 331 327 332 330 309 218 34 30 347 340 288 292 302 167 307 299 100 311 266 250 267 270 245 272 254 303 278 267 125 207 210 148 86 1 283 240 314 318 311 312 316 295
5 3 2 1 354 348 345 343 342 340 340 335 328 330 355 82 108 123 235 305 309 243 240 269 285 280 3 310 306 355 294 242 217 308 300 276 298 241 260 247 176 181 175 251 23 338 259 282 286 282 320 325 320 313
353 355 353 348 342 339 339 340 340 337 335 333 330 343 147 96 17 300 315 6 168 267 269 251 297 328 347 322 283 234 320 281 110 243 223 245 212 231 230 206 185 201 187 143 313 274 277 266 286 304 331 318 309 302
348 340 337 334 334 336 337 339 338 333 331 328 336 302 180 345 318 322 305 224 128 14 232 257 354 298 332 352 306 301 230 307 292 101 318 231 257 274 256 253 275 238 217 117 341 334 328 312 306 303 266 277 268 286
321 321 322 325 330 330 328 332 336 342 343 351 359 324 324 325 335 30 280 297 25 214 192 228 252 287 101 291 309 353 307 286 275 120 268 240 259 323 13 340 1 342 305 291 299 314 295 275 294 304 307 313 308 304
319 322 322 322 323 322 324 326 340 352 337 305 295 301 303 348 318 287 242 248 230 244 180 214 158 216 262 301 268 193 273 234 256 27 262 247 62 10 356 3 8 9 357 334 336 315 326 320 314 306 310 315 314 308
308 314 315 315 315 318 327 330 334 352 337 334 323 287 337 180 260 225 206 203 237 192 198 195 230 198 197 227 258 264 246 244 335 236 239 250 71 29 353 1 6 20 9 354 347 355 351 340 333 327 319 316 312 307
307 308 309 309 308 294 285 329 343 341 323 3 348 293 215 222 241 214 231 292 60 224 182 213 256 219 177 229 234 248 240 272 251 241 237 124 56 3 21 10 4 351 348 336 342 340 339 338 331 324 321 322 322 320
307 304 301 305 290 282 298 318 330 338 271 280 192 244 225 245 273 282 324 285 211 222 185 211 240 232 209 234 211 270 235 241 231 242 101 110 40 35 353 358 339 334 334 334 335 336 336 334 328 322 324 323 322 321
305 307 291 289 274 288 300 311 320 264 239 224 229 253 230 277 249 214 219 244 187 180 141 238 243 230 222 225 209 219 239 230 227 178 135 153 5 16 354 341 335 328 332 333 334 336 335 335 330 324 321 328 330 323
293 262 282 286 286 291 294 285 238 227 236 217 237 225 239 275 259 257 200 218 159 171 216 212 224 219 90 227 223 218 226 270 122 158 147 26 357 351 333 321 322 332 334 329 325 325 324 328 327 325 329 330 329 318
272 274 279 282 287 281 252 207 212 242 242 223 229 234 216 228 252 248 214 177 166 198 199 221 234 204 219 229 233 227 210 111 43 80 353 22 100 2 342 325 327 326 325 326 324 317 318 325 329 323 321 322 321 321
284 284 279 279 280 261 222 210 202 246 223 229 244 238 235 251 239 252 261 196 212 182 211 212 231 224 232 247 277 12 37 20 347 347 339 103 15 359 337 330 322 326 329 328 331 322 324 331 328 329 325 325 322 324
285 284 277 272 267 235 245 224 214 249 228 214 214 244 227 241 265 239 235 194 181 189 209 227 235 267 330 60 51 40 50 19 334 316 293 53 352 341 334 325 320 322 320 324 321 326 328 331 333 332 327 324 326 324
283 284 285 279 248 223 241 219 221 230 235 226 209 210 241 215 239 234 225 167 196 212 229 273 48 50 54 69 66 86 71 43 43 10 335 319 340 336 326 324 327 324 331 327 327 331 331 328 327 326 325 321 321 318
274 275 263 250 229 221 234 204 219 160 203 241 210 212 250 251 257 232 133 191 214 35 21 20 35 19 57 46 49 42 29 11 5 354 347 335 331 332 325 327 323 329 321 320 325 327 323 323 322 326 325 322 322 318
280 256 236 218 227 220 235 163 204 194 223 217 181 219 227 228 169 145 156 50 64 25 24 28 23 40 63 67 65 51 28 6 348 346 344 335 323 316 320 324 317 319 316 313 323 323 323 324 326 326 327 324 323 322
262 238 222 230 220 262 22 206 321 327 319 325 288 260 343 14 349 348 59 50 39 43 38 23 18 23 50 42 27 16 5 349 336 333 341 327 325 327 323 310 296 299 301 297 313 315 322 322 326 323 324 323 322 322
257 37 17 353 24 340 5 342 2 356 356 320 302 329 354 320 357 69 86 103 42 26 20 15 18 20 7 359 357 354 354 348 335 323 320 316 313 315 312 306 294 295 310 288 306 309 311 315 319 318 320 319 322 327
54 16 23 4 354 352 346 327 343 344 303 302 3 330 305 312 21 49 61 65 32 20 10 7 356 352 19 9 341 339 336 331 320 304 312 320 309 302 296 296 299 299 303 308 305 298 301 306 312 317 317 320 327 329
40 360 349 41 313 287 279 273 9 7 10 7 350 325 326 318 47 68 110 46 12 17 8 10 12 360 333 322 324 325 331 334 322 312 315 313 303 287 267 261 275 284 294 309 298 306 292 293 303 310 308 313 323 322
39 27 356 317 317 335 329 -0 11 15 13 356 326 298 325 342 10 40 38 33 47 39 22 15 4 341 333 335 336 336 341 339 337 337 333 328 320 303 301 300 285 294 296 289 297 295 298 292 294 297 305 317 324 331
24 348 324 317 319 359 32 9 343 23 6 306 274 267 314 18 331 310 191 167 127 111 82 55 21 6 -0 348 345 341 335 329 330 323 319 315 318 313 309 310 314 314 312 310 310 300 298 295 286 303 327 316 317 323
355 352 328 342 338 286 0 338 287 330 291 298 301 293 262 255 274 239 202 187 177 180 149 360 344 339 327 323 319 322 328 326 315 284 279 291 295 303 311 312 310 310 310 308 304 306 303 300 300 292 302 315 319 319
336 314 287 256 265 263 330 311 289 250 251 259 235 256 282 314 301 238 216 210 219 242 279 296 313 334 328 326 311 310 309 316 312 313 309 300 302 303 305 306 306 304 303 301 296 292 293 286 289 285 291 301 309 308
344 32 339 296 285 350 356 356 322 317 323 294 235 228 270 258 272 241 220 213 224 248 265 286 288 299 319 326 319 317 315 309 315 317 312 306 302 304 304 298 299 299 297 297 297 295 292 279 279 277 282 292 300 302
284 237 264 289 293 315 7 339 355 332 279 283 284 303 273 280 256 285 263 224 232 251 274 296 308 302 309 319 317 318 319 321 321 314 308 308 308 306 315 311 299 294 290 288 290 292 288 288 278 281 287 291 295 299